Regional Weather Roundup
Issued by NWS

Home | Current Version | Previous Version | Graphics & Text | Print | Product List | Glossary On
Versions: 1 2 3 4 5 6 7 8 9 10 11 12 13 14 15 16 17 18 19 20 21 22 23 24 25 26 27 28 29 30 31 32 33 34 35 36 37 38 39 40 41 42 43 44 45 46 47 48 49 50
000
ASUS44 KMEG 202100
RWRTN
TENNESSEE HOURLY STATE WEATHER ROUNDUP
NATIONAL WEATHER SERVICE MEMPHIS TN
400 PM CDT WED AUG 20 2014

TNZ002-004-019-021-049-052-054-088>092-202200-
WEST TENNESSEE

CITY           SKY/WX    TMP DP  RH WIND       PRES   REMARKS
MEMPHIS INTL   MOSUNNY   94  67  41 SW12      30.00F HX  97
NWS MEMPHIS      N/A     94 N/A N/A MISG        N/A
JACKSON        SUNNY     93  73  52 W9        29.98F HX 102
DYERSBURG      SUNNY     93  70  46 W10       29.97F HX  99
PARIS          SUNNY     90  75  62 W8        29.97F HX 100
SAVANNAH       SUNNY     93  75  55 W10       30.00F HX 104
$$

TNZ008-025-027-028-033-062-065-066-202200-
NORTH MIDDLE TENNESSEE

CITY           SKY/WX    TMP DP  RH WIND       PRES   REMARKS
NASHVILLE      CLOUDY    77  70  79 SE24G32   30.01R THUNDER
CLARKSVILLE    MOSUNNY   94  71  47 W12       29.94F HX 101
SMYRNA         TSTM      75  66  73 SE10      30.04R
COOKEVILLE     PTSUNNY   70  66  88 CALM      30.04F
CROSSVILLE     CLOUDY    73  63  70 W16G33    30.10R
$$

TNZ061-075-076-078-094-096-097-202200-
SOUTH MIDDLE TENNESSEE

CITY           SKY/WX    TMP DP  RH WIND       PRES   REMARKS
SHELBYVILLE    PTSUNNY   81  70  69 NE14      30.03R
$$

TNZ017-018-042-046-047-202200-
NORTHEAST TENNESSEE

CITY           SKY/WX    TMP DP  RH WIND       PRES   REMARKS
TRI CITIES     MOSUNNY   84  69  60 VRB5      30.02F
ELIZABETHTON   PTCLDY    84  70  61 CALM      30.03F
$$

TNZ012-013-036-069-073-074-202200-
CENTRAL EAST TENNESSEE

CITY           SKY/WX    TMP DP  RH WIND       PRES   REMARKS
KNOXVILLE      CLOUDY    73  66  78 SW14      30.02S
OAK RIDGE      PTSUNNY   75  70  84 CALM      30.02F
$$

TNZ083-085-099-202200-
SOUTHEAST TENNESSEE

CITY           SKY/WX    TMP DP  RH WIND       PRES   REMARKS
CHATTANOOGA    PTSUNNY   94  70  45 W14       29.98F HX 100
$$

SKY/WX REPORTED AS FAIR MEANS FEW OR NO CLOUDS BELOW
12 THOUSAND FEET.



USA.gov is the U.S. government's official web portal to all federal, state and local government web resources and services.